Location: Azul
(36.7830°S, 59.8500°W)
Time: 18:47:48
(UTC-03:00)

BUGSAT 1 - Pass Details

Date: 25 October 2021
Orbit: 558 x 600 km, 98.1° (Epoch: 06 December)

Event Time Altitude Azimuth Distance (km) Brightness Sun altitude
Rises 04:13:39 0° 45° (NE) 2,806 ? -20.5°
Reaches altitude 10° 04:16:07 10° 59° (ENE) 1,922 ? -20.0°
Maximum altitude 04:19:25 23° 111° (ESE) 1,287 ? -19.5°
Drops below altitude 10° 04:22:47 10° 163° (SSE) 1,962 ? -18.9°
Sets 04:25:19 0° 177° (S) 2,879 ? -18.5°
